Weather History for Cape Girardeau, MO

Change the Weather History Date:

Tuesday, February 19, 2013

  Actual Average Record
Temperature  
Mean Temperature 37 °F 39 °F  
Max Temperature 46 °F 49 °F 71 °F (1994)
Min Temperature 28 °F 29 °F 4 °F (1978)
Degree Days  
Heating Degree Days 28 26  
Month to date heating degree days 485 540  
Since 1 July heating degree days 2984 3278  
Cooling Degree Days 0 0  
Month to date cooling degree days 0 0  
Year to date cooling degree days 0 0  
Moisture  
Dew Point 19 °F    
Average Humidity 49    
Maximum Humidity 76    
Minimum Humidity 22    
Precipitation  
Precipitation 0.00 in 0.12 in 1.29 in (2002)
Month to date precipitation 1.40 2.33  
Year to date precipitation 4.98 5.80  
Sea Level Pressure  
Sea Level Pressure 30.14 in    
Wind  
Wind Speed 13 mph (WNW)    
Max Wind Speed 25 mph    
Max Gust Speed 33 mph    
Visibility 9 miles    
Events      
T = Trace of Precipitation, MM = Missing Value Source: NWS Daily Summary

Daily Weather History Graph

Daily Weather History Graph

Search for Another Location

Airport:

Trip Planner

Search our weather history database for the weather conditions in past years. The results will help you decide how hot, cold, wet, or windy it might be!

Date:

Astronomy

Feb. 19, 2013 Rise Set
Actual Time 6:42 AM CST 5:42 PM CST
Civil Twilight 6:15 AM CST 6:09 PM CST
Nautical Twilight 5:45 AM CST 6:39 PM CST
Astronomical Twilight 5:15 AM CST 7:09 PM CST
Moon 12:18 PM CST (2/19) 2:09 AM CST (2/19)
Length of Visible Light 11h 53m
Length of Day
11h 00m
Waxing Gibbous, 67% of the Moon is Illuminated
Feb 19
Waxing Gibbous
Feb 25
Full
Mar 4
Last Quarter
Mar 11
New
Mar 19
First Quarter

Hourly Weather History & Observations

Time (CST) Temp. Windchill Dew Point Humidity Pressure Visibility Wind Dir Wind Speed Gust Speed Precip Events Conditions
12:53 AM 39.9 °F 30.8 °F 32.0 °F 73% 29.95 in 10.0 mi WNW 18.4 mph 28.8 mph N/A   Overcast
1:53 AM 37.0 °F 26.7 °F 28.0 °F 70% 29.98 in 10.0 mi WNW 19.6 mph 25.3 mph N/A   Overcast
2:46 AM 33.8 °F 25.8 °F 26.6 °F 75% 30.00 in 10.0 mi West 10.4 mph - N/A   Scattered Clouds
2:53 AM 34.0 °F 24.6 °F 26.1 °F 73% 30.01 in 10.0 mi West 13.8 mph - N/A   Partly Cloudy
3:53 AM 33.1 °F 24.4 °F 25.0 °F 72% 30.02 in 10.0 mi West 11.5 mph - N/A   Clear
4:53 AM 32.0 °F 21.2 °F 21.0 °F 64% 30.05 in 10.0 mi WNW 16.1 mph 21.9 mph N/A   Clear
5:53 AM 32.0 °F 22.5 °F 21.0 °F 64% 30.07 in 10.0 mi West 12.7 mph - N/A   Clear
6:53 AM 30.9 °F 22.2 °F 21.0 °F 67% 30.09 in 10.0 mi West 10.4 mph - N/A   Clear
7:53 AM 32.0 °F 21.6 °F 18.0 °F 56% 30.12 in 10.0 mi WNW 15.0 mph 21.9 mph N/A   Clear
8:53 AM 34.0 °F 24.2 °F 19.0 °F 54% 30.14 in 10.0 mi WNW 15.0 mph 23.0 mph N/A   Clear
9:53 AM 36.0 °F 27.1 °F 21.0 °F 55% 30.16 in 10.0 mi WNW 13.8 mph - N/A   Clear
10:53 AM 39.0 °F - 21.0 °F 49% 30.17 in - North - - N/A   Clear
11:00 AM 37.4 °F - 19.4 °F 48% 30.16 in 0.2 mi North - - N/A   Haze
11:04 AM 37.4 °F - 19.4 °F 48% 30.16 in 1.0 mi North - - N/A   Haze
11:06 AM 37.4 °F - 21.2 °F 52% 30.16 in 5.0 mi North - - N/A   Haze
12:53 PM 43.0 °F 35.7 °F 21.0 °F 42% 30.16 in 10.0 mi West 15.0 mph 23.0 mph N/A   Clear
1:53 PM 46.0 °F 39.9 °F 17.1 °F 31% 30.15 in 10.0 mi WNW 13.8 mph 21.9 mph N/A   Clear
2:53 PM 44.6 °F 37.8 °F 12.2 °F 27% 30.16 in 10.0 mi NW 15.0 mph 24.2 mph N/A   Clear
3:53 PM 44.1 °F 37.1 °F 9.0 °F 24% 30.18 in 10.0 mi NW 15.0 mph 26.5 mph N/A   Clear
4:53 PM 43.0 °F 36.4 °F 10.9 °F 27% 30.19 in 10.0 mi NW 12.7 mph 20.7 mph N/A   Clear
6:53 PM 36.0 °F 31.1 °F 12.9 °F 39% 30.22 in 10.0 mi NW 5.8 mph - N/A   Clear
7:53 PM 34.0 °F 27.2 °F 14.0 °F 44% 30.24 in 10.0 mi NW 8.1 mph - N/A   Clear
8:53 PM 33.1 °F 25.5 °F 12.9 °F 43% 30.28 in 10.0 mi NNW 9.2 mph - N/A   Clear
9:53 PM 30.9 °F 22.8 °F 14.0 °F 50% 30.29 in 10.0 mi North 9.2 mph - N/A   Clear
10:53 PM 30.0 °F 24.1 °F 12.9 °F 49% 30.29 in 10.0 mi NW 5.8 mph - N/A   Clear
11:53 PM 28.9 °F 21.1 °F 12.9 °F 51% 30.32 in 10.0 mi NNW 8.1 mph - N/A   Clear